Regional Weather Roundup
Issued by NWS

Current Version | Previous Version | Graphics & Text | Print | Product List | Glossary On
Versions: 1 2 3 4 5 6 7 8 9 10 11 12 13 14 15 16 17 18 19 20 21 22 23 24 25 26 27 28 29 30 31 32 33 34 35 36 37 38 39 40 41 42 43 44 45 46 47 48 49 50
809
ASHW40 PHFO 241032
RWRHI

WEATHER ROUNDUP FOR HAWAII
NATIONAL WEATHER SERVICE HONOLULU HI
1200 AM HST WED JAN 24 2018

THIS IS AN AUTOMATED REPORT THAT HAS NOT BEEN QUALITY CONTROLLED.

NOTE..."FAIR" INDICATES FEW OR NO CLOUDS BELOW 12,000 FEET WITH NO
SIGNIFICANT WEATHER AND/OR OBSTRUCTIONS TO VISIBILITY.

* - THESE SITES REPORT LIMITED FIELDS
# - BUOY DATA PROVIDED BY PACIFIC ISLANDS OCEAN OBSERVING SYSTEM.

HIZ001>004-241100-
KAUAI-NIIHAU-

CITY           SKY/WX    TMP DP  RH WIND       PRES   REMARKS
LIHUE APT      CLOUDY    74  70  87 E17       30.01F
PORT ALLEN*      N/A     72 N/A N/A E17G24      N/A
POIPU*           N/A     73 N/A N/A NE8G15      N/A
PRINCEVILLE*     N/A     70 N/A N/A SE7         N/A
KOKOLE POINT*  NOT AVBL
MOLOAA DAIRY*    N/A     72  70  94 SE5G13      N/A
WAIMEA HTS*    NOT AVBL
PUU OPAE*      NOT AVBL
PUU LUA*       NOT AVBL
MAKAHA RIDGE*    N/A     64  61  88 CALM        N/A
$$

HIZ005>011-241100-
OAHU-

CITY           SKY/WX    TMP DP  RH WIND       PRES   REMARKS
HONOLULU       PTCLDY    75  66  73 E8        29.98F
KALAELOA       CLEAR     72  67  84 E6        29.99F
KANEOHE MCB    CLOUDY    75  68  78 E13G23    29.97F
WHEELER FIELD  FAIR      70  66  87 E7        30.02F
BELLOWS*         N/A    N/A N/A N/A NE22        N/A
KAHUKU*          N/A    N/A N/A N/A NE10G17     N/A
WHEELER*       NOT AVBL
WAIANAE HARBOR NOT AVBL
DILLINGHAM*    NOT AVBL
KAHUKU TRN*      N/A     72  68  88 W7G22       N/A
KAWAILOA*        N/A     68  64  88 E14G24      N/A
KII*             N/A     73  68  83 E18G24      N/A
MAKUA RANGE*     N/A     75  64  69 NW9G15      N/A
OAHU FOREST NW NOT AVBL
SCHOFIELD BRK*   N/A     68  64  88 MISG        N/A
SCHOFIELD S*   NOT AVBL
WAIANAE VLY*   NOT AVBL
KUAOKALA*      NOT AVBL
HONOULIUULI*   NOT AVBL
MOKUOLOE IS*   NOT AVBL
PALEHUA*       NOT AVBL
WAIAWA PHB*    NOT AVBL
$$

HIZ012>013-241100-
MOLOKAI-

CITY           SKY/WX    TMP DP  RH WIND       PRES   REMARKS
MOLOKAI AIRPT    N/A    N/A N/A N/A MISG        N/A
KALAUPAPA      NOT AVBL
MAKAPULAPAI*     N/A     72  68  88 E20G30      N/A
MOLOKAI 1*     NOT AVBL
PUU ALII*        N/A     55  55 100 N3G9        N/A
$$

HIZ016-241100-
KAHOOLAWE-

CITY           SKY/WX    TMP DP  RH WIND       PRES   REMARKS
KAHOOLAWE*     NOT AVBL
HAKIOAWA*        N/A     68  67  96 MISG      30.38S
HONOKANAIA*    NOT AVBL
KANELOA*         N/A     72  66  83 NE13G31   30.02F
KEALIALALO*    NOT AVBL
LUA MAKIKA*    NOT AVBL
$$

HIZ014>015-241100-
LANAI-

CITY           SKY/WX    TMP DP  RH WIND       PRES   REMARKS
LANAI CITY     FAIR      68  66  93 NE15      30.01F
LANAI 1*       NOT AVBL
$$

HIZ017>028-241100-
MAUI-

CITY           SKY/WX    TMP DP  RH WIND       PRES   REMARKS
KAHULUI        CLOUDY    72  70  94 NE17G24   29.97S
KAPALUA-W MAUI NOT AVBL
HANA AIRPORT     N/A     73  32  21 NE6       30.02F
HANA*            N/A     73 N/A N/A E10G17      N/A
HALEAKALA SUMM   N/A     39  39 100 SE35        N/A  WCI  27
MAALAEA BAY*     N/A     72 N/A N/A N16G24      N/A
HALEAKALA*     NOT AVBL
KAUPO GAP*     NOT AVBL
KULA 1*          N/A     53  45  74 E5G14       N/A
$$

HIZ023>026-241100-
BIG ISLAND OF HAWAII COAST AND LOWER SLOPES-

CITY           SKY/WX    TMP DP  RH WIND       PRES   REMARKS
KAILUA KONA    CLEAR     75  61  61 E5        29.92F
HILO           HVY RAIN  69  66  90 SW5       29.99F FOG
HONOKAA*         N/A     64 N/A N/A VRB1        N/A
KAWAIHAE MWT*    N/A     73 N/A N/A E2          N/A
KAWAIHAE*        N/A     73 N/A N/A NE3       29.91F
SOUTH POINT*     N/A     70 N/A N/A N21G30      N/A
UPOLU AIRPORT* NOT AVBL
KAMUELA*       SUNNY     55  54  94 E10       30.04S
HAKALAU*         N/A     48  45  87 S6G17       N/A
KALOKO-HONOKO*   N/A     72  63  73 SE1       29.91F
PALI 2*          N/A    N/A N/A N/A S6G13       N/A
KEALAKOMO*       N/A     72  68  88 NE7G17      N/A
KAUPULEHU*     NOT AVBL
KAPAPALA*        N/A     64  61  91 NW3         N/A
LOWER KAHUKU*    N/A     61  59  94 VRB3G20     N/A
PUHE CS*         N/A     72  59  64 E3          N/A
PUHO CS*         N/A     69  58  69 E2          N/A
PTA KEAMUKU*     N/A     59  54  82 E6G12       N/A
WAIKOLOA*      NOT AVBL
$$

HIZ027>028-241100-
BIG ISLAND OF HAWAII INTERIOR AND SUMMMITS-

CITY           SKY/WX    TMP DP  RH WIND       PRES   REMARKS
BRADSHAW FIELD CLOUDY    56  39  53 S14G20    30.25F
MK VISITOR CEN   N/A     43  27  52 NE8         N/A
MAUNA KEA*       N/A     23  19  86 E12         N/A  WCI  12
MAUNA LOA*       N/A    N/A N/A N/A MISG        N/A
MAUNA LOA 1*   NOT AVBL
PTA KIPUKA*      N/A     55  45  67 W6G13       N/A
PTA RANGE 17*    N/A     55  43  62 W17G29      N/A
PTA WEST*        N/A     64  48  55 E15G23      N/A
NENE CABIN*      N/A     48  46  93 NE6G14      N/A
AHUMOA*        NOT AVBL
PTA PORTABLE*  NOT AVBL
PUU MALI*        N/A     57  46  67 S13G18      N/A
$$

HIC003-241100-
NORTHWEST ISLANDS-

CITY           SKY/WX    TMP DP  RH WIND       PRES   REMARKS
MIDWAY ISLAND  CLOUDY    66  57  72 W9G16     29.84S
MIDWAY NOS*      N/A     66 N/A N/A MISG      29.82S
FRENCH FRIGATE NOT AVBL
$$

PHZ110>124-180-241100-
BUOY REPORTS

STATION/POSITION TIME  TEMP    WIND        PRES    WAVE   SWELL
                       AIR SEA DIR/SP/G            HT/PER HT/DIR
                 (UTC) (F)     (DEG/KT/KT) (MB)    (FT/S) (FT/D)
BUOY 51001       1010   76 78  120/ 16/ 21 1012.6
BUOY 51101       0950   73 74  110/ 16/ 19 1016.6F   7/ 8   5/100
BUOY 51100       NOT AVBL
BUOY 51002       1010   77 78   70/ 19/ 25 1012.2
BUOY 51003       0950   76 77   80/ 14/ 17 1013.6F   9/14   7/330
BUOY 51004       1010   76 76   70/ 19/ 25 1013.8
WAIMEA BAY#      1002      74                N/A     6/14   5/310
MOKAPU POINT#    1004      76                N/A     8/11   3/ 80
LANAI#           NOT AVBL
BARBERS PT 2#    NOT AVBL
PAUWELA#         1000      75                N/A    10/10   5/ 80
HILO#            0957      74                N/A     9/10   3/ 90
KANEOHE BAY#     NOT AVBL
KANEOHE BAY 2#   NOT AVBL
HANALEI#         0952      74                N/A     7/14   3/310
KAHULUI HARBOR   1000   74 75   50/ 14/ 20 1014.8
HONOLULU HARBOR  1000   73 76   90/  3/  9 1014.7
PEARL HARBOR#    1000      76                N/A     3/ 8   2/170
KILO NALU        NOT AVBL
HILO HARBOR      1000   69 74  180/  3/  5 1015.4
MOKUOLOE         0936   75 75   80/  9/ 15 1015.9F
NAWILIWILI       1000   74      80/ 14/ 17 1015.9
WHOTS BUOY       NOT AVBL
BUOY 51028       NOT AVBL
$$

......................KEY........................................
  SKY/WX - SKY CONDITIONS/PRESENT WEATHER
  TMP    - TEMPERATURE IN FAHRENHEIT
  DWPT   - DEWPOINT IN FAHRENHEIT
  RH     - RELATIVE HUMIDITY IN PERCENT
  WIND   - DIRECTION AND SPEED /MPH FOR ISLANDS...KTS FOR BUOYS/
  PRES   - MEAN SEA LEVEL PRESSURE IN INCHES OF HG
  VSB    - VISIBILITY IN MILES
  HX     - HEAT INDEX
  WCI    - WIND CHILL INDEX
  VRB    - VARIABLE WIND DIRECTION
  N/A    - NOT AVAILABLE




USA.gov is the U.S. government's official web portal to all federal, state and local government web resources and services.